Woodward, OK

3:24 AM CST on February 11, 2016 (GMT -0600)
West Woodward

Weather History for KWWR - September, 2012

Change the Weather History Date:

Tuesday, September 11, 2012

  Actual Average (KGAG) Record (KGAG)
Temperature  
Mean Temperature 80 °F -  
Max Temperature 91 °F 88 °F 106 °F (2000)
Min Temperature 69 °F 61 °F 41 °F (1959)
Cooling Degree Days 15    
Growing Degree Days 30 (Base 50)    
Moisture  
Dew Point 42 °F    
Average Humidity 26    
Maximum Humidity 35    
Minimum Humidity 17    
Precipitation  
Precipitation 0.00 in - - ()
Sea Level Pressure  
Sea Level Pressure 29.97 in    
Wind  
Wind Speed 20 mph (South)    
Max Wind Speed 31 mph    
Max Gust Speed 39 mph    
Visibility 10 miles    
Events      
Averages and records for this station are not official NWS values.
T = Trace of Precipitation, MM = Missing Value Source: NWS Daily Summary

Daily Weather History Graph

Daily Weather History Graph

Search for Another Location

Airport or City:

Trip Planner

Search our weather history database for the weather conditions in past years. The results will help you decide how hot, cold, wet, or windy it might be!

Date:

Astronomy

Sep. 11, 2012 Rise Set
Actual Time 7:17 AM CDT 7:50 PM CDT
Civil Twilight 6:51 AM CDT 8:16 PM CDT
Nautical Twilight 6:21 AM CDT 8:47 PM CDT
Astronomical Twilight 5:49 AM CDT 9:18 PM CDT
Moon 2:42 AM CDT 4:56 PM CDT
Length of Visible Light 13h 24m
Length of Day
12h 32m
Waning Crescent, 21% of the Moon is Illuminated
Sep 11
Waning Crescent
Sep 15
New
Sep 22
First Quarter
Sep 29
Full
Oct 8
Last Quarter

Hourly Weather History & Observations

Time (CDT) Temp. Dew Point Humidity Pressure Visibility Wind Dir Wind Speed Gust Speed Precip Events Conditions
12:15 AM 75.2 °F 37.4 °F 25% 30.03 in 10.0 mi SSE 16.1 mph - N/A   Clear
12:35 AM 75.2 °F 37.4 °F 25% 30.03 in 10.0 mi South 18.4 mph 24.2 mph N/A   Clear
12:55 AM 75.2 °F 37.4 °F 25% 30.03 in 10.0 mi South 17.3 mph - N/A   Clear
1:15 AM 75.2 °F 37.4 °F 25% 30.02 in 10.0 mi South 17.3 mph 23.0 mph N/A   Clear
1:35 AM 73.4 °F 37.4 °F 27% 30.02 in 10.0 mi South 17.3 mph 23.0 mph N/A   Clear
1:55 AM 73.4 °F 39.2 °F 29% 30.02 in 10.0 mi South 20.7 mph 26.5 mph N/A   Clear
2:15 AM 73.4 °F 39.2 °F 29% 30.01 in 10.0 mi South 21.9 mph 28.8 mph N/A   Clear
2:35 AM 73.4 °F 41.0 °F 31% 30.01 in 10.0 mi South 20.7 mph 25.3 mph N/A   Clear
2:55 AM 73.4 °F 41.0 °F 31% 30.01 in 10.0 mi South 18.4 mph 24.2 mph N/A   Clear
3:15 AM 71.6 °F 41.0 °F 33% 30.01 in 10.0 mi South 18.4 mph - N/A   Clear
3:35 AM 71.6 °F 41.0 °F 33% 30.01 in 10.0 mi South 18.4 mph 21.9 mph N/A   Clear
3:55 AM 71.6 °F 41.0 °F 33% 30.00 in 10.0 mi South 19.6 mph 25.3 mph N/A   Clear
4:15 AM 71.6 °F 41.0 °F 33% 30.00 in 10.0 mi South 19.6 mph 26.5 mph N/A   Clear
4:35 AM 71.6 °F 41.0 °F 33% 30.00 in 10.0 mi South 20.7 mph 25.3 mph N/A   Clear
4:55 AM 71.6 °F 41.0 °F 33% 30.01 in 10.0 mi South 18.4 mph 25.3 mph N/A   Clear
5:15 AM 71.6 °F 41.0 °F 33% 30.00 in 10.0 mi South 15.0 mph - N/A   Clear
5:35 AM 71.6 °F 41.0 °F 33% 30.01 in 10.0 mi South 17.3 mph 24.2 mph N/A   Clear
5:55 AM 69.8 °F 41.0 °F 35% 30.01 in 10.0 mi South 16.1 mph - N/A   Clear
6:15 AM 69.8 °F 41.0 °F 35% 30.00 in 10.0 mi South 18.4 mph 25.3 mph N/A   Clear
6:35 AM 69.8 °F 41.0 °F 35% 30.00 in 10.0 mi South 16.1 mph 24.2 mph N/A   Clear
6:55 AM 69.8 °F 41.0 °F 35% 30.00 in 10.0 mi South 17.3 mph 26.5 mph N/A   Clear
7:15 AM 69.8 °F 41.0 °F 35% 30.00 in 10.0 mi South 18.4 mph 25.3 mph N/A   Clear
7:35 AM 69.8 °F 41.0 °F 35% 30.01 in 10.0 mi South 17.3 mph 21.9 mph N/A   Clear
7:55 AM 71.6 °F 41.0 °F 33% 30.00 in 10.0 mi South 20.7 mph 28.8 mph N/A   Clear
8:15 AM 71.6 °F 41.0 °F 33% 30.01 in 10.0 mi South 23.0 mph 29.9 mph N/A   Clear
8:35 AM 73.4 °F 41.0 °F 31% 30.01 in 10.0 mi South 23.0 mph 31.1 mph N/A   Clear
8:55 AM 73.4 °F 41.0 °F 31% 30.01 in 10.0 mi South 20.7 mph 27.6 mph N/A   Clear
9:15 AM 75.2 °F 41.0 °F 29% 30.00 in 10.0 mi South 21.9 mph 29.9 mph N/A   Clear
9:35 AM 77.0 °F 41.0 °F 28% 30.01 in 10.0 mi South 21.9 mph - N/A   Clear
9:55 AM 78.8 °F 41.0 °F 26% 30.01 in 10.0 mi South 21.9 mph 26.5 mph N/A   Clear
10:15 AM 78.8 °F 42.8 °F 28% 30.02 in 10.0 mi South 16.1 mph 25.3 mph N/A   Clear
10:35 AM 80.6 °F 42.8 °F 26% 30.01 in 10.0 mi South 17.3 mph 20.7 mph N/A   Clear
10:55 AM 82.4 °F 42.8 °F 25% 30.01 in 10.0 mi South 21.9 mph - N/A   Clear
11:15 AM 84.2 °F 42.8 °F 23% 30.01 in 10.0 mi South 21.9 mph - N/A   Clear
11:35 AM 84.2 °F 42.8 °F 23% 30.01 in 10.0 mi South 18.4 mph 24.2 mph N/A   Clear
11:55 AM 86.0 °F 42.8 °F 22% 30.00 in 10.0 mi South 19.6 mph 25.3 mph N/A   Clear
12:15 PM 87.8 °F 42.8 °F 21% 30.00 in 10.0 mi South 20.7 mph 24.2 mph N/A   Clear
12:35 PM 87.8 °F 42.8 °F 21% 29.99 in 10.0 mi South 18.4 mph 24.2 mph N/A   Clear
12:55 PM 89.6 °F 42.8 °F 20% 29.98 in 10.0 mi South 19.6 mph 26.5 mph N/A   Clear
1:15 PM 89.6 °F 42.8 °F 20% 29.97 in 10.0 mi South 20.7 mph 28.8 mph N/A   Clear
1:55 PM 91.4 °F 42.8 °F 18% 29.95 in 10.0 mi South 26.5 mph 35.7 mph N/A   Clear
2:15 PM 91.4 °F 42.8 °F 18% 29.95 in 10.0 mi South 26.5 mph 34.5 mph N/A   Clear
3:15 PM 91.4 °F 42.8 °F 18% 29.93 in 10.0 mi SSE 28.8 mph 34.5 mph N/A   Clear
3:35 PM 91.4 °F 42.8 °F 18% 29.92 in 10.0 mi South 23.0 mph 34.5 mph N/A   Clear
3:55 PM 91.4 °F 42.8 °F 18% 29.91 in 10.0 mi South 24.2 mph 36.8 mph N/A   Clear
4:15 PM 91.4 °F 42.8 °F 18% 29.91 in 10.0 mi South 26.5 mph 33.4 mph N/A   Clear
4:35 PM 91.4 °F 42.8 °F 18% 29.90 in 10.0 mi South 26.5 mph 35.7 mph N/A   Clear
4:55 PM 91.4 °F 41.0 °F 17% 29.90 in 10.0 mi South 28.8 mph 35.7 mph N/A   Clear
5:15 PM 91.4 °F 42.8 °F 18% 29.90 in 10.0 mi South 21.9 mph 31.1 mph N/A   Clear
5:55 PM 91.4 °F 41.0 °F 17% 29.90 in 10.0 mi South 31.1 mph 39.1 mph N/A   Clear
6:15 PM 89.6 °F 41.0 °F 18% 29.90 in 10.0 mi South 26.5 mph 35.7 mph N/A   Clear
6:35 PM 89.6 °F 41.0 °F 18% 29.90 in 10.0 mi South 26.5 mph 34.5 mph N/A   Clear
6:55 PM 89.6 °F 41.0 °F 18% 29.91 in 10.0 mi South 20.7 mph 31.1 mph N/A   Clear
7:15 PM 87.8 °F 41.0 °F 19% 29.90 in 10.0 mi South 19.6 mph 28.8 mph N/A   Clear
7:35 PM 87.8 °F 41.0 °F 19% 29.90 in 10.0 mi South 16.1 mph 26.5 mph N/A   Clear
7:55 PM 86.0 °F 42.8 °F 22% 29.90 in 10.0 mi South 18.4 mph 23.0 mph N/A   Clear
8:15 PM 84.2 °F 44.6 °F 25% 29.90 in 10.0 mi SSE 18.4 mph 24.2 mph N/A   Clear
8:35 PM 84.2 °F 44.6 °F 25% 29.91 in 10.0 mi SSE 19.6 mph 25.3 mph N/A   Clear
8:55 PM 82.4 °F 44.6 °F 26% 29.92 in 10.0 mi SSE 20.7 mph 27.6 mph N/A   Clear
9:15 PM 82.4 °F 44.6 °F 26% 29.93 in 10.0 mi SSE 20.7 mph 29.9 mph N/A   Clear
9:35 PM 82.4 °F 44.6 °F 26% 29.93 in 10.0 mi SSE 21.9 mph 29.9 mph N/A   Clear
9:55 PM 82.4 °F 44.6 °F 26% 29.93 in 10.0 mi SSE 25.3 mph 32.2 mph N/A   Clear
10:15 PM 80.6 °F 44.6 °F 28% 29.94 in 10.0 mi SSE 23.0 mph 31.1 mph N/A   Clear
10:55 PM 80.6 °F 42.8 °F 26% 29.94 in 10.0 mi SSE 23.0 mph 34.5 mph N/A   Clear
11:15 PM 80.6 °F 42.8 °F 26% 29.94 in 10.0 mi South 25.3 mph 35.7 mph N/A   Clear
11:55 PM 78.8 °F 41.0 °F 26% 29.94 in 10.0 mi South 27.6 mph 34.5 mph N/A   Clear